Wind_Speed
8 4 1 4 5 5 5 6 6 4 4 5 3 3 2 3 2 1 2 5 10 6 4 7 5 2 4 4 6 10 14 17 16 14 17 22 26 28 28 29 29 30 31 28 24 25 24 24 22 21 20 20 20 19 18 18 19 18 17 17 16 15 16 17 18 18 18 17 16 16 15 13 13 13 13 11 11 12 11 11 10 11 11 11 11 11
6 4 5 6 7 6 5 5 5 2 4 5 4 3 0 2 3 2 2 6 9 5 3 6 5 3 4 4 4 6 11 16 20 18 18 22 25 28 29 29 31 30 30 29 27 27 27 26 25 23 21 21 21 21 20 19 20 19 17 17 16 16 17 18 18 18 18 17 15 14 14 14 15 14 13 11 12 13 12 10 9 10 11 11 11 10
3 3 7 8 5 4 3 3 3 1 4 4 2 3 0 2 2 2 2 5 7 3 2 5 6 5 5 6 5 6 9 15 22 21 20 22 22 25 29 30 31 30 29 30 30 29 30 29 28 26 23 22 21 21 21 20 19 19 17 16 16 17 18 18 18 18 17 17 15 14 14 14 14 13 13 12 13 13 12 10 9 10 10 11 11 10
3 4 7 7 6 6 3 3 6 3 3 3 3 3 2 2 1 1 1 4 4 2 3 5 3 3 4 5 6 9 12 12 18 20 20 20 19 22 28 30 32 31 30 31 31 31 32 31 30 28 25 23 23 22 22 20 19 19 18 16 16 17 18 18 18 17 16 17 16 15 14 13 12 13 14 14 13 13 12 11 10 10 10 10 10 10
4 5 3 5 6 6 4 3 6 4 1 2 2 4 3 2 2 2 3 4 3 3 3 6 3 1 4 6 5 8 11 11 13 16 19 22 20 18 23 28 31 32 32 32 32 32 33 33 33 30 27 25 24 24 23 21 19 18 18 17 17 17 18 18 18 17 17 18 18 17 15 14 13 13 15 15 15 14 13 12 11 10 10 10 9 9
6 5 4 6 4 4 4 3 4 6 2 3 3 7 6 5 4 6 8 5 3 1 2 4 2 3 4 8 6 5 7 9 10 14 19 24 23 19 22 26 29 32 33 34 33 33 33 33 33 31 29 27 26 25 23 20 19 18 18 17 17 17 17 17 17 18 19 21 20 19 18 17 17 17 17 16 15 14 13 12 11 10 10 10 9 8
3 2 5 5 4 4 3 3 4 5 5 2 5 7 7 6 7 9 9 5 2 2 3 4 3 2 3 6 8 7 7 8 11 14 20 25 24 21 24 26 28 32 33 33 34 34 34 34 34 33 32 29 27 25 23 21 19 19 19 18 17 17 17 17 18 19 20 22 22 20 19 18 17 17 17 15 13 12 11 11 11 11 11 10 9 9
2 1 3 3 4 4 3 3 4 6 7 3 5 6 7 7 8 11 9 4 2 2 2 3 3 1 3 4 7 10 9 9 11 13 17 24 27 25 26 27 29 32 34 34 34 35 35 35 35 34 33 31 28 25 24 23 21 20 20 19 17 17 16 16 18 19 20 22 22 21 19 17 16 15 14 13 12 11 10 11 11 11 10 10 10 9
2 3 3 4 4 3 4 5 7 8 5 6 5 6 7 7 7 9 7 3 2 3 1 3 3 1 4 3 5 9 7 9 13 13 15 23 29 27 26 28 29 32 35 35 35 36 36 36 35 33 32 32 29 26 25 23 21 20 20 21 19 17 16 16 18 19 20 21 21 20 18 17 16 14 12 11 11 11 11 11 11 11 10 10 10 10
2 5 7 6 4 4 6 6 8 10 5 5 5 4 3 2 3 5 5 3 3 2 3 6 5 2 3 2 6 8 8 11 13 12 14 22 30 30 27 28 28 30 33 34 35 37 36 36 35 32 31 32 31 28 25 23 22 21 21 22 21 19 17 16 17 19 20 21 21 21 20 19 17 15 13 12 11 11 11 10 11 11 11 10 10 10
4 4 3 3 5 8 7 6 9 13 9 2 2 3 4 5 3 3 2 3 3 2 4 8 10 5 2 2 6 8 6 8 11 10 12 19 27 30 29 28 29 30 32 33 35 36 36 36 35 33 33 33 32 30 27 26 25 23 22 23 22 20 18 17 18 19 20 21 21 22 22 20 18 16 14 13 12 11 11 11 10 10 10 11 10 10
5 3 2 4 10 9 4 3 5 8 8 4 3 4 4 3 3 4 3 2 3 5 4 7 10 6 3 4 5 7 4 3 9 12 14 18 25 30 31 30 29 30 31 32 34 35 36 36 37 36 36 35 34 32 30 28 26 24 23 23 23 22 19 18 18 18 19 21 22 23 23 21 19 17 15 14 13 12 11 10 10 10 11 10 10 10
4 4 3 3 8 9 6 1 2 1 2 4 3 5 5 0 2 2 1 1 3 5 3 6 9 4 5 4 2 6 6 4 8 13 17 21 26 29 31 31 30 29 29 30 32 35 36 37 39 38 38 37 36 34 32 29 27 25 24 23 23 22 20 19 19 18 18 20 22 23 23 22 20 18 16 14 12 11 11 10 10 11 11 11 10 10
3 5 4 2 4 6 8 4 1 1 3 6 5 5 4 3 3 2 2 0 2 4 1 6 8 2 4 2 3 5 9 10 11 15 22 26 29 31 32 33 30 29 29 27 28 33 37 38 40 39 39 38 36 34 33 31 29 26 25 24 23 22 20 19 19 19 18 19 21 22 22 22 21 19 17 15 12 11 11 11 11 11 11 10 10 10
1 3 4 3 2 1 5 6 6 5 5 5 5 6 5 4 4 4 3 3 3 2 1 5 5 2 2 1 6 9 10 12 14 17 21 24 28 31 31 32 30 29 30 27 25 29 34 37 39 39 39 38 37 35 34 32 30 28 26 24 23 21 20 20 19 19 19 20 21 21 21 21 21 19 17 15 13 11 11 11 11 11 11 11 10 9
2 4 7 5 3 3 3 4 5 7 3 3 3 5 4 6 5 2 3 5 3 2 2 3 3 2 3 1 6 10 8 3 10 15 16 20 24 26 28 30 31 30 31 28 24 25 29 33 36 38 39 38 37 35 35 33 31 29 26 24 23 21 20 20 19 19 19 20 20 21 21 21 20 19 18 16 15 13 11 12 11 11 11 11 10 9
1 4 7 5 3 4 4 3 3 5 4 1 3 4 4 5 6 3 2 1 2 3 1 1 1 3 2 1 6 9 9 6 3 9 13 17 21 24 26 28 31 33 33 29 26 24 24 28 32 36 38 38 37 36 36 34 32 29 27 25 23 22 21 20 19 19 19 20 21 21 21 21 21 20 18 17 16 14 12 12 12 11 11 11 10 9
2 3 6 2 2 4 2 1 2 3 5 4 3 5 3 3 3 3 2 2 3 2 2 1 1 3 1 1 4 8 8 8 5 4 8 12 17 20 22 25 29 33 33 30 27 24 22 23 28 32 35 37 37 37 36 35 33 30 28 26 24 23 21 20 19 19 20 21 22 22 22 21 21 20 19 17 16 15 14 13 13 12 11 11 10 10
2 1 6 3 2 6 6 3 0 2 2 4 4 5 4 3 1 1 2 2 1 2 2 2 2 3 2 2 3 6 6 6 6 5 6 7 11 13 15 18 22 25 26 27 28 26 23 21 23 28 32 34 36 37 37 36 35 33 30 28 26 23 21 19 19 20 21 21 21 22 22 21 21 20 19 18 17 16 16 15 14 13 12 11 11 10
1 1 4 5 3 4 6 3 2 3 3 1 2 2 2 3 4 3 2 3 3 3 2 1 1 3 3 2 2 2 3 4 5 6 7 9 10 11 12 13 16 18 21 26 26 24 22 21 20 22 27 32 35 36 37 37 36 34 32 30 27 25 23 22 21 20 20 21 21 22 22 21 21 21 20 19 18 18 17 16 15 14 13 12 11 11
1 2 2 6 4 2 3 1 3 3 1 1 2 1 1 1 2 2 1 1 3 4 3 2 1 4 3 2 2 2 3 4 5 7 8 11 13 13 14 14 15 16 18 23 24 22 23 24 22 19 20 25 30 34 36 38 38 36 33 31 29 27 26 25 23 21 20 20 21 21 21 21 21 21 21 20 20 19 18 16 15 14 13 13 12 12
1 1 1 4 5 2 3 4 4 4 5 4 2 2 3 2 3 3 1 1 2 4 3 4 3 4 2 1 1 3 5 5 8 10 10 12 14 15 15 15 15 15 16 17 20 21 25 29 29 25 22 22 26 31 35 36 37 36 33 31 30 29 28 27 25 22 20 19 20 20 20 21 21 21 21 21 21 21 19 18 16 14 13 13 13 13
1 2 1 2 3 4 7 6 3 2 3 3 2 2 2 2 4 5 4 3 1 2 1 3 1 4 3 1 2 4 6 7 9 12 11 11 15 17 17 16 16 15 15 15 16 17 19 24 28 29 28 27 25 27 31 34 36 36 35 34 32 30 29 29 28 25 22 21 20 19 19 20 21 21 22 22 22 22 21 19 17 16 14 13 13 13
1 2 2 3 4 4 6 6 5 2 4 3 3 2 2 1 1 5 5 3 3 2 1 3 0 3 2 2 4 7 8 9 9 11 13 12 13 17 17 17 17 15 14 14 14 15 15 17 22 25 27 29 29 27 27 28 30 33 35 35 34 32 31 31 30 28 26 24 22 21 20 20 21 21 22 23 23 23 22 21 19 18 16 15 14 14
2 1 2 2 3 4 5 6 6 4 4 3 3 3 3 3 2 4 2 3 2 3 4 4 2 3 2 4 6 8 9 10 9 10 13 14 13 15 15 16 17 16 14 13 12 13 13 13 15 19 24 29 30 28 25 25 26 30 33 35 35 33 32 31 31 29 28 27 26 25 23 21 21 21 22 23 24 24 23 22 22 20 19 18 17 16
1 1 2 2 2 1 0 2 3 4 4 3 3 4 6 4 1 4 3 3 2 3 4 5 3 2 5 7 7 7 8 8 9 10 13 15 16 16 16 16 16 15 13 11 11 13 13 12 12 16 21 25 25 25 26 27 29 31 32 32 31 31 31 30 30 29 28 27 27 27 26 24 22 21 22 23 24 24 25 24 24 23 21 20 19 18
3 3 1 4 4 4 4 3 4 3 2 4 7 8 8 6 1 4 5 2 4 4 3 3 4 8 10 11 10 8 8 8 9 11 14 15 16 17 18 18 16 15 15 13 11 12 14 14 13 15 17 19 20 23 27 28 28 29 29 27 25 26 27 27 28 29 28 28 28 28 28 27 24 23 22 23 23 24 25 26 25 25 23 23 22 21
4 4 2 3 3 2 5 4 5 3 1 3 8 9 9 9 4 3 4 4 6 6 3 5 7 11 13 13 12 10 9 9 10 13 15 17 18 19 19 19 17 16 15 14 11 10 12 14 13 10 10 11 13 18 23 24 23 24 26 27 27 27 27 26 27 28 30 31 30 28 29 28 26 24 23 22 23 24 25 26 26 25 25 24 24 23
5 2 2 2 1 3 4 4 2 4 3 2 6 8 10 11 6 1 2 3 6 5 4 7 10 10 10 13 12 10 10 11 12 15 17 19 20 20 20 19 17 15 15 14 13 11 12 13 11 8 5 6 7 9 12 15 18 20 21 23 24 25 27 27 26 26 27 29 29 28 28 28 26 24 23 22 23 23 24 25 25 25 25 24 24 23
4 1 3 0 2 1 5 5 2 7 7 4 6 8 10 9 6 3 3 3 4 1 3 10 12 6 6 10 11 11 14 15 16 17 18 19 20 21 22 21 18 17 15 14 14 14 14 13 11 9 8 7 7 7 8 8 10 13 15 16 17 19 23 27 28 26 24 25 26 25 27 28 26 25 24 23 23 23 22 23 24 24 25 24 23 22
3 1 2 2 2 2 6 7 5 7 7 5 7 12 13 11 7 4 4 3 5 4 4 11 11 4 5 10 14 16 18 17 17 18 18 19 21 22 24 23 21 19 18 17 17 18 18 16 14 12 12 11 10 8 6 4 2 2 5 9 11 12 15 21 26 26 23 22 22 24 26 27 25 25 24 23 23 22 22 23 23 23 23 24 24 23
4 2 2 4 3 2 5 5 5 6 7 7 10 14 14 10 5 3 4 3 2 6 9 9 7 4 7 13 16 17 18 17 16 18 19 20 22 24 25 25 23 21 21 20 22 22 22 21 19 16 15 14 12 11 9 8 7 7 7 4 1 3 8 14 18 19 18 18 19 21 24 27 27 27 26 25 24 23 23 24 24 23 23 23 24 24
2 2 2 3 2 2 5 3 2 2 4 6 6 8 10 7 2 3 6 7 4 5 8 5 2 4 9 13 14 13 13 15 15 17 20 22 23 26 27 26 24 23 23 23 25 26 26 25 24 21 19 17 15 15 14 12 11 11 11 9 7 5 6 8 9 10 11 11 12 15 18 22 24 24 24 24 24 24 25 25 25 24 24 23 24 24
2 3 2 2 3 2 6 5 3 3 4 6 3 2 4 5 5 6 5 7 8 3 3 4 4 6 9 10 12 12 12 14 16 17 20 23 26 27 26 26 25 24 24 24 25 26 26 27 26 24 22 20 18 17 17 16 16 16 13 11 10 10 10 11 11 9 7 7 8 10 13 16 16 17 18 19 20 22 22 23 24 24 24 24 24 24
2 3 2 2 3 1 3 4 4 3 6 5 2 2 4 4 5 7 6 7 10 8 2 8 9 10 11 12 15 17 17 19 20 19 19 22 26 28 27 26 25 25 24 23 24 24 24 23 24 23 23 21 19 18 18 18 18 18 17 15 14 14 13 11 10 10 11 11 11 11 11 13 14 14 15 15 16 17 17 17 20 22 23 24 24 24
2 2 2 2 2 2 1 2 3 4 6 3 2 0 3 2 2 4 5 7 9 8 3 7 10 12 15 17 19 23 25 25 23 20 18 20 23 26 28 27 26 25 24 23 22 22 21 20 21 20 20 20 19 18 18 16 15 17 18 18 18 18 17 14 11 10 9 9 9 9 9 10 10 11 12 13 13 13 13 14 16 18 18 19 21 22
4 2 2 1 1 3 3 1 2 3 4 3 2 1 3 1 2 1 1 3 5 7 4 5 8 11 16 19 21 25 29 26 19 15 17 21 21 22 24 25 24 25 24 23 22 21 20 19 19 18 17 18 19 18 17 15 13 14 16 17 18 18 17 17 15 12 11 10 9 9 9 8 7 7 9 11 11 12 13 14 15 15 14 15 17 20
5 2 2 3 0 2 4 2 1 0 3 3 4 2 2 2 2 3 2 2 3 4 6 10 9 8 11 17 22 25 24 17 8 7 15 22 22 22 23 23 23 23 23 22 21 21 20 18 17 16 15 16 17 17 15 13 11 12 14 15 15 16 17 17 17 15 13 12 12 11 11 10 8 6 4 4 6 9 12 11 11 12 13 13 14 15
6 4 3 4 2 2 4 2 1 3 4 4 4 5 7 6 3 4 3 3 3 5 11 16 14 10 10 14 19 19 14 8 3 4 14 22 23 22 23 24 23 22 21 20 19 18 17 15 14 13 12 13 14 14 13 12 11 11 12 12 11 12 14 15 15 14 13 12 11 10 11 11 11 11 8 5 1 5 9 10 9 11 12 13 12 12
5 4 4 4 2 1 3 1 1 2 2 3 4 7 10 5 4 5 3 4 7 13 16 19 22 22 22 22 19 11 6 7 9 11 17 23 23 22 22 23 22 21 19 18 16 15 14 12 10 9 9 10 11 10 10 10 10 10 10 10 8 8 10 12 11 10 10 10 9 8 8 8 9 10 10 8 7 4 5 7 8 10 11 12 12 11
3 3 3 3 1 1 2 1 1 2 2 3 8 13 11 5 3 5 2 6 12 19 20 20 24 27 28 28 20 10 10 20 26 26 25 24 22 22 21 21 21 19 18 16 15 13 11 9 6 6 6 7 8 7 7 8 8 8 8 7 6 7 8 8 7 6 6 6 6 6 6 6 6 7 7 6 5 5 4 4 3 4 7 8 8 9
2 2 2 2 2 2 1 2 1 2 1 6 14 14 6 2 2 2 3 8 20 26 23 21 24 26 26 25 21 20 25 32 35 33 29 26 23 22 21 21 20 18 16 15 13 10 8 6 4 4 5 6 6 6 7 7 7 7 6 5 5 5 5 4 3 3 2 2 3 4 4 4 4 4 4 3 3 2 2 4 4 3 3 4 5 7
1 0 1 1 1 1 2 3 2 2 2 10 14 7 3 2 3 3 2 8 22 28 26 24 25 26 25 23 24 30 34 35 34 32 30 27 24 22 22 21 19 17 16 14 12 8 5 3 3 4 5 7 8 9 9 9 8 7 6 5 4 2 2 3 3 3 3 3 3 3 3 2 2 2 1 2 2 1 1 1 3 3 4 5 5 4
2 2 0 2 2 2 2 0 2 4 5 11 9 1 2 5 4 3 2 7 18 22 24 26 26 24 25 28 32 33 33 33 32 30 30 29 26 24 24 21 17 16 15 13 11 8 4 1 2 5 7 9 10 10 11 11 10 9 8 7 6 4 4 4 4 4 4 4 5 4 4 3 2 2 1 0 2 3 4 4 4 4 5 5 4 4
2 2 2 1 1 2 3 4 4 4 7 9 6 3 5 5 3 4 4 9 18 21 22 25 27 25 24 28 32 31 28 30 31 30 31 31 29 27 25 22 18 16 13 11 9 7 4 1 4 6 8 9 10 10 10 9 9 9 8 8 7 7 6 5 5 5 5 5 5 5 5 5 4 4 4 3 3 3 5 5 5 4 4 4 4 4
2 1 2 1 2 2 2 2 4 5 7 8 6 4 4 3 2 2 3 6 14 20 21 22 25 25 21 20 23 25 26 29 32 33 34 33 30 28 25 21 19 17 13 10 7 4 2 3 5 6 7 8 8 8 8 8 7 7 7 7 8 8 8 7 6 5 5 5 5 5 6 6 7 7 7 7 7 6 6 6 6 6 6 5 5 5
2 1 2 1 1 0 0 3 5 6 9 9 6 4 4 3 2 3 2 1 6 14 20 21 21 20 17 16 19 22 25 29 34 37 35 30 28 25 23 21 19 15 11 8 4 2 2 3 5 7 8 8 7 8 8 7 7 7 7 7 8 8 8 8 8 7 6 5 5 5 6 7 7 8 9 9 10 10 10 9 9 8 9 9 9 8
1 2 1 1 1 1 3 4 2 5 9 9 7 5 5 5 4 4 4 4 1 6 14 19 20 20 18 16 17 20 22 24 28 32 32 28 26 24 22 20 17 12 9 6 3 1 1 3 6 7 8 7 7 8 9 8 8 8 8 8 9 9 9 8 8 8 7 6 6 6 6 7 7 8 9 10 11 12 12 13 12 12 12 12 12 12
0 2 1 2 1 2 3 2 1 2 5 9 9 7 6 5 4 4 5 4 3 3 8 14 18 19 19 15 14 16 19 19 21 24 26 26 25 24 20 16 13 11 10 8 5 3 2 5 6 7 8 8 8 8 9 9 9 9 8 8 8 8 8 8 7 7 7 7 7 7 7 7 7 8 9 9 9 10 11 13 14 14 13 13 14 14
0 2 1 3 1 3 3 1 2 2 1 5 9 8 6 5 4 4 6 5 5 6 7 10 13 16 17 18 19 20 20 21 24 26 24 23 23 21 18 16 15 14 12 10 7 4 2 5 6 7 8 8 8 8 9 9 9 7 6 6 6 6 7 7 7 7 7 7 7 8 8 8 8 9 9 10 10 10 10 11 13 14 15 15 15 15
1 2 3 3 2 3 3 2 3 3 2 3 7 9 7 5 3 3 5 5 6 7 8 9 12 13 13 15 18 21 21 22 27 29 26 24 23 20 16 15 14 12 10 8 6 3 2 4 5 6 7 8 8 8 9 8 7 6 5 5 5 6 6 7 7 7 7 7 7 8 8 8 8 9 9 10 11 11 10 10 11 12 14 16 17 17
Wind_Direction
154 150 176 198 209 199 203 190 171 160 116 112 109 102 164 198 251 243 121 164 161 148 175 179 174 157 149 147 170 182 181 190 199 195 188 185 188 190 190 194 196 200 205 205 206 208 212 214 215 214 212 213 213 209 206 200 195 193 188 185 184 182 182 182 179 176 173 171 170 169 169 165 157 157 159 161 168 170 167 165 164 167 172 174 174 174
142 179 222 213 211 191 189 197 186 149 80 78 92 93 82 210 242 277 123 168 165 142 142 156 152 131 130 131 153 195 189 191 200 200 192 189 189 191 192 194 197 200 204 207 210 212 215 217 217 216 214 213 211 207 206 203 197 194 190 187 188 186 184 184 182 179 175 173 174 171 168 162 154 156 161 162 164 165 164 164 165 168 172 175 174 173
122 224 236 223 205 145 132 154 152 115 88 87 96 112 149 251 241 336 39 153 161 139 148 158 151 136 150 153 152 220 222 202 202 204 199 192 189 193 195 196 197 199 202 206 211 214 217 219 218 216 215 213 210 207 204 199 196 195 191 187 191 192 188 185 185 185 180 175 173 168 164 159 154 154 157 158 160 162 164 166 168 171 170 171 172 171
162 238 239 214 169 133 132 131 116 90 72 92 115 131 222 255 155 20 14 142 132 83 141 143 131 135 152 154 169 214 232 220 208 211 210 201 198 199 199 200 200 199 200 205 209 213 215 217 217 215 214 213 210 209 203 195 194 195 192 189 193 196 192 188 187 188 186 179 171 164 160 156 152 154 158 160 162 164 167 170 170 171 169 167 168 169
213 238 201 135 137 148 160 152 125 122 284 297 176 175 207 215 174 147 137 132 86 35 113 117 75 310 174 178 198 204 220 229 211 206 209 210 213 210 205 205 204 202 203 205 207 211 213 214 215 214 213 211 208 206 201 195 193 192 191 191 196 199 197 193 189 187 188 184 176 169 169 170 166 162 165 167 167 168 172 173 171 170 170 167 167 169
253 246 151 114 119 140 150 186 169 152 186 301 236 206 194 168 142 127 130 126 93 335 235 129 98 297 211 190 192 169 197 216 201 200 208 211 216 219 213 209 206 205 206 208 210 211 212 214 215 213 211 210 209 206 200 195 194 191 188 190 196 201 201 198 193 188 191 190 184 180 179 181 179 176 175 174 172 173 173 171 170 171 174 175 175 174
258 225 147 139 142 137 145 219 219 155 136 278 244 202 184 156 132 142 147 136 141 201 219 171 147 278 251 200 188 174 187 197 192 204 211 209 213 219 218 214 209 206 206 208 210 212 213 214 214 212 210 210 209 207 203 199 199 195 191 190 193 199 202 202 195 191 193 194 192 191 189 187 187 183 178 175 174 172 171 172 174 176 179 182 184 185
198 144 115 126 134 144 173 233 222 149 128 230 238 153 158 165 151 162 162 149 175 141 137 178 140 61 279 238 191 178 183 197 199 206 210 209 211 215 216 216 213 209 207 207 208 210 213 213 214 212 211 211 210 209 206 202 203 202 197 194 195 197 201 202 199 195 195 197 198 197 194 194 195 190 179 174 172 171 174 177 179 183 185 188 191 192
194 174 190 170 163 187 205 209 190 156 151 241 223 128 151 179 164 167 163 147 151 102 99 215 154 126 273 271 179 169 178 204 208 206 205 207 209 213 214 214 214 212 209 209 209 211 212 213 215 215 213 212 211 209 208 205 204 206 204 201 200 201 203 204 203 200 198 199 201 201 200 201 201 197 189 185 180 176 179 182 184 187 190 195 198 199
243 208 203 165 162 209 219 205 171 162 190 241 203 136 105 113 125 144 151 123 108 124 220 206 176 181 271 254 164 172 201 214 208 204 205 206 207 211 213 211 212 212 210 210 212 213 214 215 216 216 214 212 211 210 209 208 207 208 209 206 206 206 205 206 206 204 201 200 203 206 207 206 205 203 200 202 198 189 187 189 188 190 193 197 202 204
274 251 218 160 191 212 216 204 177 180 194 179 136 127 58 41 62 83 75 88 112 244 237 188 181 182 281 257 179 181 209 210 197 194 201 205 205 207 210 208 206 208 209 209 211 212 214 215 215 215 213 211 210 211 210 209 210 211 211 210 209 209 208 206 205 205 205 203 204 208 209 210 210 210 209 211 211 204 201 199 196 199 200 200 203 206
320 300 233 218 221 212 191 205 199 198 196 150 100 109 86 21 31 45 7 54 165 250 254 178 171 167 235 255 209 208 233 200 189 192 194 199 202 203 205 204 202 203 205 206 207 209 208 209 211 211 212 211 210 211 211 210 211 212 213 212 211 211 210 207 204 205 208 207 207 207 209 211 212 214 217 217 217 215 212 209 207 208 208 208 207 208
315 257 264 258 229 198 153 154 298 343 144 152 132 104 109 63 32 70 254 209 204 246 259 162 147 155 237 250 263 236 242 236 205 200 197 195 197 198 200 201 199 198 198 201 205 207 206 206 208 209 210 210 211 211 211 211 211 213 214 213 212 212 211 209 207 207 210 212 211 209 210 211 211 213 216 220 223 223 222 219 218 216 215 215 214 213
315 286 305 314 253 198 157 153 188 53 137 163 164 139 141 141 118 169 220 63 228 253 269 143 142 208 261 289 332 276 254 248 227 211 205 198 195 195 196 197 198 194 193 196 201 205 206 206 207 208 209 210 211 213 213 212 212 214 214 214 214 215 215 213 213 211 213 216 215 212 211 212 212 211 212 216 221 226 228 226 224 225 223 221 220 220
156 287 264 205 244 201 172 185 173 152 161 180 169 145 155 162 148 175 190 174 216 246 83 135 156 217 214 253 314 306 281 249 222 213 209 200 195 193 192 193 196 193 190 193 198 203 207 208 208 208 209 211 213 214 215 214 214 215 216 216 217 217 217 217 217 216 217 219 218 216 214 214 214 214 214 215 217 223 230 230 227 227 226 224 224 222
127 254 254 249 240 179 196 217 152 125 151 204 144 124 166 188 158 139 178 181 177 132 111 162 197 227 190 246 332 346 339 257 193 192 194 192 191 189 187 190 194 193 190 192 197 199 205 209 210 210 211 212 214 215 216 216 216 217 217 218 219 220 220 221 221 221 221 221 221 219 219 218 218 218 217 217 217 219 227 231 228 226 226 226 226 224
57 273 274 307 298 197 184 216 173 161 186 162 127 167 207 178 139 122 179 148 87 131 194 238 278 313 308 292 343 3 12 21 126 165 172 179 182 183 187 188 191 193 193 198 201 199 201 206 209 212 214 214 215 217 218 219 219 220 220 220 221 222 223 225 226 225 223 224 224 223 222 222 221 222 221 220 219 220 227 232 229 226 226 224 227 228
140 277 285 316 306 268 263 244 248 200 152 123 166 201 186 106 100 110 145 39 50 162 260 329 221 290 293 206 335 4 19 12 15 120 149 165 172 179 188 190 191 193 195 203 208 205 202 203 207 211 214 217 219 219 221 222 223 222 222 223 223 224 226 228 230 228 224 224 226 227 225 224 224 224 224 224 223 224 228 232 231 230 228 225 226 229
120 298 295 275 238 299 338 66 255 317 115 144 177 169 131 127 169 109 153 173 134 169 275 313 251 248 197 203 325 7 16 5 22 71 103 131 153 167 181 188 191 190 192 201 209 210 206 203 205 209 213 218 222 224 224 224 224 224 223 225 226 229 231 233 234 233 229 226 228 229 228 227 226 225 225 224 225 227 229 231 233 235 234 230 228 229
63 84 288 281 263 302 354 67 167 297 329 38 92 123 125 143 166 170 164 164 146 157 218 308 312 257 213 220 278 31 23 20 60 78 84 95 112 133 152 172 183 185 193 202 206 208 208 205 205 209 215 218 221 224 225 225 225 225 224 225 227 229 233 235 237 237 233 229 228 229 229 229 228 227 226 224 225 228 230 232 235 237 237 235 234 234
28 70 270 293 318 357 7 351 193 187 164 69 59 122 226 71 131 160 114 88 124 145 173 154 236 262 236 224 233 119 71 49 74 77 74 84 95 110 128 148 165 175 190 204 208 211 215 217 219 221 221 221 222 224 225 226 227 227 226 227 229 230 232 234 236 238 236 231 228 229 229 229 230 229 228 226 226 228 230 232 235 236 238 238 238 238
18 63 244 305 341 359 267 254 222 194 178 161 122 152 191 159 127 136 189 306 109 128 156 157 194 264 262 182 197 111 89 72 81 84 79 82 91 103 116 131 146 157 169 188 203 212 220 224 227 229 227 225 227 226 225 225 226 226 228 231 232 232 235 237 237 237 237 234 231 230 230 230 231 231 231 230 229 230 230 231 232 234 236 238 239 240
162 105 78 282 281 262 260 267 279 237 178 146 111 116 147 135 108 128 185 224 103 89 97 112 130 274 264 149 106 110 106 96 94 97 95 89 95 105 114 127 139 150 161 175 188 201 213 220 223 226 226 225 226 226 225 225 225 226 229 232 233 233 235 239 240 239 238 237 235 235 235 233 232 232 232 233 233 233 233 234 234 234 235 238 240 242
122 86 31 302 290 300 294 309 338 30 96 63 354 43 74 335 119 145 177 171 138 156 123 85 11 259 232 127 115 119 115 103 95 101 105 101 100 104 113 130 144 156 168 176 183 190 197 205 214 221 224 223 222 221 221 220 221 224 226 229 231 234 236 240 243 243 241 240 240 240 240 239 237 234 233 233 235 236 236 237 237 238 238 239 241 244
352 23 56 27 347 340 340 350 349 354 50 40 305 321 347 330 104 134 127 74 122 195 152 132 221 243 151 130 130 129 122 106 94 98 105 104 102 101 109 128 145 157 163 165 172 182 185 193 209 220 224 224 221 218 216 216 219 223 226 228 231 235 238 240 243 245 245 246 245 243 243 243 242 240 236 234 235 236 238 239 240 241 242 242 242 244
42 72 99 101 119 185 333 3 324 311 330 330 313 333 337 337 103 142 123 91 154 203 145 145 204 194 143 151 155 148 134 113 101 100 101 101 102 102 108 123 138 146 147 146 156 168 172 178 197 213 222 224 220 216 216 218 222 225 226 228 229 232 235 238 241 244 247 250 250 248 246 245 245 244 240 236 235 236 238 240 242 243 244 245 246 247
107 60 69 114 122 158 181 229 261 282 310 319 338 347 342 331 319 123 110 145 180 163 178 211 179 154 161 171 170 158 142 129 119 110 106 105 106 106 112 123 133 136 134 136 149 161 164 172 189 206 220 225 223 222 223 223 224 225 226 226 226 227 231 235 239 241 243 248 251 251 247 244 243 245 244 241 237 237 238 240 242 245 246 248 249 249
103 32 17 99 95 190 199 234 286 328 316 321 348 348 345 343 337 133 147 197 163 139 213 235 170 158 173 177 168 155 144 138 131 123 119 118 115 113 116 122 129 132 132 133 137 145 150 160 175 190 208 218 222 229 232 231 232 231 231 231 230 229 229 231 236 239 239 241 244 248 247 244 243 245 247 246 241 239 239 239 240 243 246 250 252 252
112 45 317 126 120 257 257 259 310 16 7 1 8 355 348 347 340 182 200 204 149 152 221 196 167 167 173 166 156 147 144 140 134 130 127 124 121 119 119 119 122 127 129 126 122 123 129 143 156 153 151 181 202 223 233 235 237 236 236 238 237 236 235 236 238 239 236 234 236 242 244 243 242 244 247 248 246 243 243 243 242 241 243 246 250 252
112 25 311 92 141 284 320 311 359 34 19 8 2 354 353 346 346 56 65 43 84 122 197 156 148 147 149 148 139 137 142 136 130 129 125 124 123 120 118 116 115 117 120 115 108 107 110 121 133 129 118 132 162 195 213 222 233 237 237 238 240 238 237 239 242 242 241 238 236 238 241 242 242 243 244 246 245 242 243 246 246 244 244 245 245 248
56 358 309 55 69 355 353 347 358 14 9 13 2 351 354 351 349 36 63 44 56 67 112 130 134 123 125 130 126 133 139 130 126 126 122 122 122 118 115 115 113 112 111 107 102 101 103 107 114 117 113 112 124 147 162 151 146 206 219 227 235 235 231 233 236 238 241 241 237 235 239 243 244 243 242 243 244 242 243 246 247 246 246 248 247 245
35 3 352 58 60 332 342 353 2 349 332 358 12 354 346 344 344 11 17 9 90 123 123 128 146 161 145 133 128 134 136 129 128 128 124 123 121 116 115 113 111 110 108 106 102 100 100 100 100 100 99 99 102 105 104 104 104 94 93 112 184 228 222 226 230 233 238 240 238 236 236 239 240 240 238 239 242 243 243 244 245 243 243 246 248 248
69 62 23 68 99 303 314 325 63 54 297 308 353 355 337 327 331 30 10 358 17 126 142 150 165 146 142 137 131 133 135 132 132 131 128 126 120 117 116 113 110 110 111 109 105 101 98 96 94 93 94 93 91 90 91 96 99 92 89 94 95 108 149 175 194 215 231 237 236 232 231 232 234 235 236 237 242 246 246 247 247 245 244 245 246 249
76 94 79 93 118 272 301 326 48 108 210 242 246 87 43 16 43 60 31 360 358 356 161 130 94 111 128 131 131 134 134 131 129 129 128 126 122 119 118 116 115 116 116 113 107 102 98 94 92 92 91 91 89 88 89 90 89 90 93 100 105 109 120 127 132 140 151 157 169 190 208 219 223 227 232 237 243 246 246 249 253 253 253 252 251 251
54 72 96 94 104 164 311 15 65 188 224 233 240 136 114 110 100 85 55 22 8 352 51 112 114 127 128 125 129 128 123 121 121 121 123 126 126 125 122 121 122 121 120 117 112 106 102 97 95 93 90 89 88 86 85 85 88 91 92 95 97 99 105 120 129 123 120 125 130 140 166 193 207 216 225 234 241 242 241 247 254 256 258 257 255 253
99 100 113 90 105 138 48 71 142 233 264 277 298 28 100 95 78 69 35 14 7 348 355 114 122 126 122 121 125 124 119 115 107 105 117 128 129 128 126 126 128 125 121 120 117 112 108 103 98 96 93 90 85 80 78 80 85 89 90 91 93 92 94 105 118 115 109 110 110 111 126 154 182 198 206 213 222 226 226 232 238 241 247 251 252 253
109 120 90 67 149 144 130 168 233 291 296 294 321 42 112 61 304 102 55 334 349 356 10 96 110 117 121 121 123 123 120 111 92 85 111 128 131 129 128 127 128 126 123 122 119 115 111 107 103 99 94 90 85 77 73 74 79 87 90 91 93 93 91 93 95 93 90 91 89 87 95 112 140 169 188 200 206 205 204 212 222 227 231 239 246 250
81 73 112 124 116 88 102 92 2 267 230 253 295 316 61 52 218 158 105 326 323 24 81 98 86 82 111 123 129 129 120 108 82 77 111 125 132 133 131 129 128 126 123 122 120 116 113 110 105 98 90 85 81 73 68 67 70 79 86 88 91 94 92 90 87 84 83 83 80 77 76 80 86 93 128 193 211 206 199 197 206 215 219 226 235 243
47 39 95 103 41 50 102 104 150 185 223 251 267 308 0 32 140 140 55 330 249 163 135 127 119 114 124 134 138 135 121 102 95 110 117 125 132 136 136 135 133 130 127 125 123 121 118 113 104 95 86 78 73 65 58 56 56 64 74 78 84 91 90 87 84 79 77 76 75 76 72 69 67 64 63 68 108 201 207 206 205 209 216 223 227 234
21 11 44 61 35 85 104 88 199 199 254 261 264 312 340 3 117 111 24 291 199 174 165 152 147 149 151 152 150 145 136 139 141 136 129 129 131 135 137 139 139 139 138 135 133 128 121 115 106 97 86 76 68 56 44 40 40 46 55 58 62 75 81 81 79 77 77 74 73 75 72 70 71 68 64 63 68 101 171 201 212 216 223 229 233 237
356 1 48 82 67 40 83 99 272 274 273 285 306 320 332 350 93 109 224 226 176 171 176 168 159 158 157 157 157 152 151 149 145 142 139 136 136 137 139 141 144 146 145 142 139 134 126 120 108 88 73 65 57 42 27 20 19 26 36 36 35 42 55 67 73 77 82 79 71 67 67 70 74 75 76 73 67 77 93 98 130 192 214 228 238 245
355 357 20 74 63 20 88 110 333 289 275 333 326 325 345 72 162 211 249 193 171 172 178 173 166 161 158 159 157 151 149 149 148 148 147 147 147 147 148 150 150 150 148 143 139 137 133 124 98 58 39 30 18 5 0 356 353 359 6 7 14 23 25 29 36 43 56 59 49 50 56 62 63 66 74 76 60 39 44 56 71 105 159 200 228 247
171 99 349 282 172 91 48 45 43 210 286 350 346 339 34 36 255 280 321 181 174 173 174 173 168 162 160 160 155 150 151 152 153 155 156 158 162 163 159 157 155 154 152 147 142 137 127 103 57 26 11 5 357 347 341 337 332 331 329 328 336 345 337 333 333 331 331 326 332 354 13 25 34 39 55 86 100 103 101 100 111 131 155 180 204 229
195 156 170 250 200 113 82 83 192 224 300 349 1 332 315 334 310 318 331 187 178 174 174 174 169 164 163 160 155 153 157 159 161 164 164 165 171 174 170 168 167 161 155 151 148 142 135 98 24 17 9 1 354 346 339 332 325 320 314 310 308 299 291 294 297 300 306 308 309 313 318 322 326 320 316 191 148 155 164 166 160 163 174 183 192 198
246 214 173 187 196 162 188 226 255 297 334 3 19 350 337 353 345 317 286 200 184 181 182 178 173 171 170 166 163 163 167 170 171 174 172 170 172 175 177 180 183 177 169 166 164 161 155 96 36 20 9 1 355 347 340 330 321 315 308 301 297 296 297 297 294 290 290 292 293 292 288 284 277 271 268 266 247 209 193 189 186 191 198 204 210 213
264 227 156 175 273 261 229 281 318 353 15 28 36 27 18 30 18 340 299 221 199 195 193 188 183 181 180 179 177 174 175 175 173 173 173 172 171 173 176 179 182 185 187 186 178 163 122 45 24 12 5 4 1 353 343 329 313 305 300 296 294 294 298 305 308 305 295 283 276 272 269 267 262 257 254 256 258 255 245 233 226 224 226 229 232 233
307 52 108 86 351 17 244 328 349 24 31 31 42 66 77 77 59 54 43 292 223 207 203 199 192 188 187 188 183 176 175 176 175 173 175 176 175 175 175 174 175 178 180 177 164 113 60 20 9 10 11 11 8 0 351 336 316 300 289 287 289 291 295 304 310 314 313 304 286 271 263 260 258 254 249 246 247 250 253 252 251 251 249 247 247 249
348 17 17 138 80 190 254 291 6 58 47 43 52 54 58 77 89 86 81 64 51 214 210 204 199 198 193 182 173 168 165 169 175 178 181 183 181 177 174 173 172 171 172 174 172 154 2 357 3 8 10 11 7 358 350 342 332 317 303 295 293 294 295 297 299 302 306 307 304 295 284 274 267 262 256 250 247 247 249 250 252 257 260 260 257 255
34 344 304 147 44 319 287 266 158 84 35 44 54 47 41 56 80 103 108 104 101 162 200 202 206 211 209 203 203 195 182 177 180 179 177 180 180 177 175 177 179 182 189 197 206 226 286 340 359 5 5 3 358 349 342 339 335 329 320 311 303 301 299 296 296 296 295 294 296 298 299 295 288 281 275 268 260 256 254 254 254 255 258 262 264 263
333 286 169 111 45 291 267 214 155 195 281 52 58 55 48 39 51 102 116 121 131 145 174 195 205 218 226 231 231 219 203 192 186 180 181 189 192 187 185 188 192 196 201 203 205 219 290 342 355 360 357 350 344 340 337 337 335 334 332 324 313 309 306 302 303 304 302 300 297 295 297 299 297 295 293 288 281 273 265 262 261 260 258 256 258 263
203 220 179 151 178 223 225 170 115 120 150 109 79 72 70 55 40 76 92 101 134 152 167 181 190 204 220 224 219 215 210 202 193 191 196 203 202 198 197 199 205 211 211 206 210 231 322 350 351 352 349 342 338 335 336 337 335 331 332 329 325 323 318 315 316 316 315 315 313 310 309 307 305 303 301 298 295 290 281 272 266 264 264 262 259 258
Height
1502 1507 1511 1511 1511 1510 1509 1509 1509 1510 1511 1512 1514 1516 1518 1520 1519 1515 1515 1513 1512 1521 1528 1526 1529 1531 1530 1531 1531 1533 1535 1537 1538 1538 1539 1540 1541 1542 1543 1545 1547 1549 1551 1553 1555 1557 1558 1560 1562 1563 1565 1567 1568 1570 1572 1573 1574 1576 1577 1578 1579 1580 1582 1583 1584 1585 1586 1587 1588 1589 1589 1591 1592 1593 1594 1595 1596 1597 1598 1600 1600 1601 1603 1604 1605 1606
1503 1510 1511 1508 1507 1508 1508 1508 1508 1510 1511 1512 1515 1516 1518 1520 1519 1514 1514 1514 1512 1520 1528 1525 1529 1533 1532 1533 1533 1534 1536 1536 1536 1537 1538 1539 1540 1541 1542 1544 1546 1548 1551 1553 1554 1556 1558 1559 1561 1563 1565 1566 1567 1569 1571 1572 1574 1575 1577 1578 1580 1581 1582 1583 1585 1586 1587 1588 1589 1589 1590 1591 1593 1594 1595 1596 1597 1598 1599 1600 1601 1602 1603 1604 1605 1606
1508 1510 1507 1505 1506 1508 1509 1509 1508 1510 1511 1513 1515 1516 1518 1518 1517 1516 1516 1515 1513 1520 1527 1527 1530 1534 1532 1532 1533 1535 1536 1535 1536 1536 1537 1538 1539 1540 1542 1543 1545 1547 1550 1551 1553 1555 1557 1558 1560 1563 1564 1565 1567 1568 1570 1572 1573 1575 1576 1578 1579 1581 1582 1583 1585 1586 1587 1589 1590 1591 1591 1592 1594 1595 1596 1597 1598 1598 1599 1600 1601 1602 1603 1604 1605 1606
1512 1508 1503 1504 1506 1507 1509 1510 1510 1511 1512 1514 1515 1518 1519 1517 1518 1522 1521 1518 1516 1520 1526 1527 1530 1533 1532 1532 1533 1534 1536 1535 1536 1537 1538 1538 1539 1539 1541 1542 1544 1545 1548 1550 1552 1554 1555 1557 1559 1561 1563 1565 1566 1568 1570 1571 1573 1574 1575 1577 1579 1580 1582 1583 1584 1586 1588 1589 1591 1592 1593 1594 1594 1595 1596 1597 1598 1599 1600 1600 1601 1602 1603 1604 1605 1606
1507 1502 1500 1503 1505 1506 1509 1510 1511 1512 1515 1515 1514 1516 1516 1515 1516 1520 1521 1520 1520 1522 1523 1526 1535 1536 1532 1534 1534 1532 1534 1534 1535 1537 1538 1538 1538 1539 1541 1542 1543 1544 1546 1548 1550 1552 1554 1556 1558 1560 1562 1564 1565 1567 1568 1570 1571 1573 1575 1576 1578 1580 1582 1583 1584 1586 1587 1589 1590 1591 1592 1593 1594 1595 1595 1596 1597 1598 1599 1600 1601 1603 1603 1604 1605 1606
1503 1500 1500 1502 1504 1505 1507 1509 1510 1512 1516 1516 1512 1511 1512 1513 1515 1518 1520 1522 1529 1533 1525 1525 1543 1543 1531 1531 1532 1531 1533 1533 1534 1535 1536 1536 1537 1538 1539 1540 1542 1543 1545 1547 1548 1551 1553 1554 1557 1559 1561 1563 1564 1566 1567 1569 1571 1572 1574 1576 1578 1579 1581 1583 1584 1586 1587 1588 1590 1591 1591 1592 1593 1594 1595 1596 1597 1598 1599 1600 1602 1603 1604 1605 1606 1607
1500 1498 1498 1501 1503 1505 1507 1509 1509 1510 1516 1519 1510 1506 1509 1511 1514 1519 1520 1524 1535 1537 1524 1522 1538 1545 1536 1531 1529 1528 1531 1532 1532 1533 1533 1534 1535 1536 1537 1538 1540 1541 1543 1545 1547 1549 1551 1553 1555 1557 1559 1561 1563 1565 1566 1568 1570 1572 1574 1576 1577 1579 1580 1582 1584 1585 1586 1587 1589 1590 1591 1592 1593 1594 1595 1596 1598 1598 1600 1601 1601 1603 1604 1605 1606 1607
1498 1498 1499 1500 1502 1505 1507 1509 1508 1508 1515 1517 1506 1504 1509 1509 1513 1517 1518 1524 1528 1527 1526 1524 1529 1540 1540 1531 1524 1524 1529 1532 1530 1530 1530 1531 1532 1533 1534 1536 1538 1539 1541 1543 1545 1547 1549 1551 1553 1555 1558 1560 1561 1564 1566 1567 1569 1571 1573 1575 1577 1578 1580 1581 1583 1584 1585 1586 1588 1589 1591 1592 1593 1595 1596 1597 1598 1599 1600 1601 1601 1602 1604 1605 1606 1607
1496 1498 1499 1499 1502 1505 1505 1505 1505 1506 1511 1509 1503 1505 1507 1506 1511 1513 1517 1523 1521 1525 1536 1533 1528 1540 1541 1529 1524 1524 1529 1532 1529 1526 1526 1526 1529 1530 1532 1534 1535 1538 1539 1541 1543 1545 1547 1549 1551 1554 1556 1558 1561 1563 1564 1566 1568 1570 1572 1574 1576 1578 1579 1580 1582 1583 1584 1585 1587 1588 1590 1592 1593 1595 1596 1597 1598 1599 1599 1600 1601 1602 1603 1604 1606 1607
1495 1495 1495 1497 1501 1502 1500 1500 1500 1503 1506 1502 1502 1505 1505 1507 1510 1513 1519 1522 1522 1531 1539 1534 1530 1539 1540 1530 1528 1529 1528 1527 1522 1521 1521 1522 1525 1527 1529 1532 1534 1536 1538 1540 1542 1543 1546 1548 1550 1552 1555 1557 1560 1561 1563 1565 1567 1569 1571 1573 1575 1576 1578 1579 1581 1582 1583 1584 1586 1587 1589 1591 1593 1594 1596 1597 1598 1598 1599 1600 1601 1602 1603 1604 1605 1606
1493 1493 1493 1494 1496 1495 1494 1496 1497 1499 1500 1499 1502 1506 1508 1512 1512 1516 1519 1520 1532 1540 1533 1527 1527 1534 1539 1530 1525 1524 1517 1513 1515 1518 1519 1519 1522 1525 1527 1530 1532 1534 1536 1538 1540 1542 1544 1547 1549 1552 1554 1556 1558 1560 1562 1564 1566 1567 1569 1571 1573 1575 1577 1578 1580 1581 1583 1584 1585 1586 1588 1589 1591 1593 1595 1596 1597 1598 1599 1600 1601 1602 1603 1604 1605 1606
1494 1493 1493 1491 1490 1490 1492 1495 1496 1496 1497 1499 1504 1506 1512 1519 1520 1525 1526 1526 1543 1545 1527 1521 1523 1532 1540 1527 1517 1515 1508 1506 1510 1513 1514 1515 1518 1522 1525 1528 1530 1532 1534 1536 1539 1541 1543 1545 1548 1550 1552 1554 1557 1559 1561 1562 1564 1566 1568 1570 1571 1573 1575 1577 1579 1580 1582 1583 1584 1586 1587 1589 1590 1592 1594 1595 1596 1598 1598 1600 1601 1602 1603 1604 1605 1606
1494 1492 1491 1489 1486 1488 1492 1497 1499 1499 1500 1503 1506 1508 1518 1529 1534 1542 1542 1539 1546 1539 1523 1519 1523 1533 1534 1518 1512 1512 1507 1506 1507 1507 1510 1511 1515 1519 1522 1526 1528 1530 1532 1535 1537 1539 1541 1543 1545 1548 1550 1553 1556 1557 1559 1561 1563 1565 1567 1568 1570 1572 1574 1575 1577 1579 1581 1582 1584 1585 1587 1589 1590 1592 1593 1595 1596 1598 1599 1600 1601 1601 1602 1603 1604 1605
1499 1493 1489 1489 1488 1485 1489 1496 1500 1502 1503 1505 1507 1511 1520 1531 1543 1553 1552 1548 1544 1532 1522 1519 1523 1531 1526 1513 1511 1510 1505 1505 1504 1504 1507 1509 1512 1516 1519 1524 1527 1528 1531 1533 1536 1538 1539 1541 1543 1546 1548 1551 1554 1556 1558 1560 1562 1564 1566 1567 1569 1571 1573 1575 1576 1578 1579 1581 1583 1585 1587 1588 1590 1591 1593 1595 1596 1597 1599 1600 1601 1601 1602 1603 1604 1605
1508 1503 1492 1489 1489 1486 1486 1489 1492 1495 1500 1502 1501 1505 1513 1518 1529 1542 1545 1544 1539 1532 1527 1523 1526 1529 1522 1515 1511 1505 1501 1501 1501 1503 1504 1507 1511 1514 1518 1522 1525 1527 1530 1532 1535 1537 1538 1540 1542 1545 1547 1550 1552 1555 1557 1559 1561 1563 1565 1567 1568 1570 1572 1573 1575 1576 1578 1580 1582 1584 1586 1587 1589 1591 1593 1594 1595 1597 1598 1599 1600 1601 1602 1603 1605 1606
1510 1506 1490 1485 1486 1484 1486 1484 1484 1490 1498 1500 1498 1502 1508 1505 1507 1520 1528 1527 1525 1528 1532 1528 1525 1521 1515 1512 1508 1503 1501 1499 1500 1502 1503 1506 1509 1513 1517 1520 1523 1526 1529 1532 1534 1536 1538 1539 1542 1544 1546 1549 1552 1554 1556 1558 1560 1562 1564 1566 1567 1569 1571 1572 1574 1575 1577 1579 1581 1583 1585 1586 1588 1590 1592 1593 1594 1596 1597 1598 1599 1601 1602 1603 1604 1605
1510 1503 1488 1485 1484 1482 1484 1483 1482 1487 1494 1499 1501 1502 1501 1495 1497 1511 1521 1521 1521 1528 1534 1530 1525 1520 1516 1513 1509 1506 1505 1502 1502 1502 1503 1505 1507 1511 1515 1517 1520 1524 1527 1530 1533 1535 1537 1539 1541 1543 1546 1548 1550 1553 1555 1556 1559 1561 1563 1564 1566 1568 1569 1571 1572 1574 1576 1578 1579 1581 1583 1585 1587 1588 1590 1592 1593 1595 1596 1597 1599 1600 1601 1602 1604 1605
1508 1503 1489 1486 1486 1481 1481 1481 1481 1481 1485 1494 1499 1496 1494 1496 1499 1505 1518 1527 1529 1532 1534 1532 1530 1527 1524 1520 1514 1512 1510 1508 1507 1505 1505 1507 1508 1511 1514 1516 1520 1523 1526 1529 1531 1534 1537 1538 1540 1543 1546 1548 1549 1551 1553 1555 1557 1559 1561 1563 1565 1567 1568 1570 1571 1572 1574 1576 1578 1580 1581 1583 1585 1587 1589 1591 1592 1594 1595 1596 1597 1599 1600 1602 1603 1604
1505 1505 1493 1486 1487 1483 1479 1482 1485 1483 1481 1486 1488 1485 1490 1503 1507 1506 1515 1526 1530 1536 1539 1535 1533 1529 1525 1523 1520 1518 1516 1513 1510 1508 1508 1509 1510 1512 1515 1517 1521 1523 1526 1527 1529 1533 1536 1538 1540 1543 1545 1547 1548 1550 1552 1554 1556 1558 1560 1562 1564 1566 1568 1569 1570 1571 1573 1574 1576 1578 1580 1582 1583 1585 1587 1589 1591 1592 1593 1595 1596 1598 1599 1601 1602 1603
1503 1507 1500 1488 1486 1485 1482 1484 1490 1489 1483 1482 1484 1485 1487 1495 1500 1502 1508 1512 1519 1535 1541 1536 1533 1528 1522 1522 1522 1519 1517 1515 1513 1511 1510 1510 1512 1513 1515 1518 1520 1522 1525 1526 1529 1533 1535 1538 1540 1542 1544 1546 1547 1550 1552 1554 1555 1557 1559 1561 1563 1565 1566 1568 1569 1570 1572 1573 1575 1577 1579 1580 1582 1584 1586 1587 1589 1590 1592 1594 1595 1596 1598 1599 1601 1602
1501 1507 1505 1493 1486 1488 1490 1490 1490 1491 1488 1486 1488 1491 1491 1491 1493 1498 1504 1506 1512 1526 1535 1534 1532 1526 1520 1519 1519 1517 1516 1515 1514 1513 1512 1512 1513 1514 1515 1518 1520 1522 1525 1527 1530 1532 1535 1539 1541 1542 1544 1546 1547 1549 1550 1552 1554 1556 1558 1559 1561 1563 1565 1566 1568 1569 1571 1572 1574 1576 1577 1579 1581 1583 1584 1586 1588 1589 1590 1592 1593 1595 1596 1597 1599 1600
1502 1506 1508 1502 1494 1493 1493 1490 1488 1489 1489 1489 1490 1493 1494 1493 1494 1502 1511 1513 1512 1515 1523 1526 1522 1520 1519 1516 1515 1516 1516 1515 1515 1514 1515 1515 1515 1516 1517 1519 1521 1523 1525 1527 1529 1532 1536 1538 1539 1541 1543 1545 1546 1547 1548 1550 1552 1554 1556 1558 1559 1561 1562 1564 1566 1568 1570 1571 1573 1574 1576 1578 1580 1581 1583 1584 1586 1587 1589 1590 1592 1593 1595 1596 1597 1598
1501 1505 1508 1505 1498 1495 1492 1488 1488 1489 1488 1488 1490 1492 1495 1493 1494 1500 1507 1511 1513 1514 1519 1522 1518 1517 1518 1514 1513 1516 1515 1515 1517 1516 1516 1517 1517 1518 1519 1521 1522 1524 1525 1526 1528 1530 1534 1536 1537 1539 1541 1543 1544 1545 1547 1549 1550 1553 1554 1556 1557 1559 1560 1562 1564 1567 1569 1570 1572 1573 1575 1577 1578 1580 1582 1583 1584 1586 1587 1589 1590 1592 1593 1594 1595 1597
1502 1506 1509 1505 1497 1492 1489 1487 1487 1487 1488 1491 1491 1491 1494 1494 1493 1495 1497 1502 1510 1514 1517 1520 1522 1520 1516 1513 1514 1516 1515 1517 1518 1517 1517 1518 1519 1519 1520 1521 1522 1523 1524 1525 1526 1527 1530 1533 1536 1538 1539 1540 1541 1543 1546 1548 1550 1552 1553 1554 1556 1558 1559 1561 1563 1566 1568 1569 1571 1572 1574 1575 1577 1578 1580 1581 1583 1584 1586 1588 1589 1590 1591 1592 1594 1595
1503 1508 1510 1510 1508 1504 1500 1498 1496 1491 1492 1496 1496 1494 1493 1494 1494 1495 1497 1500 1506 1512 1512 1511 1517 1520 1515 1513 1515 1516 1516 1518 1518 1519 1519 1519 1520 1521 1521 1521 1521 1521 1522 1524 1526 1527 1528 1530 1533 1535 1537 1538 1539 1541 1543 1547 1550 1551 1552 1552 1554 1556 1558 1559 1562 1565 1567 1568 1570 1571 1572 1574 1575 1577 1578 1579 1581 1583 1584 1586 1587 1589 1590 1591 1592 1594
1504 1509 1510 1512 1517 1521 1520 1518 1512 1505 1501 1499 1498 1497 1495 1496 1495 1494 1497 1501 1504 1511 1511 1506 1512 1520 1517 1514 1516 1517 1517 1518 1519 1520 1520 1520 1522 1522 1522 1522 1522 1522 1523 1525 1526 1526 1526 1527 1529 1531 1534 1537 1539 1540 1541 1544 1547 1548 1549 1550 1551 1554 1556 1558 1561 1563 1566 1568 1569 1570 1571 1572 1573 1575 1576 1578 1579 1581 1583 1584 1586 1587 1588 1590 1591 1592
1504 1509 1511 1510 1514 1518 1518 1515 1510 1507 1507 1502 1500 1501 1499 1498 1497 1494 1496 1499 1501 1508 1512 1507 1510 1518 1517 1515 1516 1517 1518 1519 1520 1521 1521 1522 1523 1523 1523 1524 1523 1523 1524 1525 1526 1526 1526 1526 1527 1529 1532 1535 1538 1539 1540 1542 1543 1545 1547 1549 1550 1553 1555 1556 1559 1561 1564 1566 1567 1568 1569 1570 1571 1572 1574 1576 1577 1579 1581 1582 1584 1586 1587 1588 1589 1591
1505 1510 1512 1511 1512 1513 1512 1510 1507 1505 1507 1505 1504 1506 1503 1501 1499 1494 1492 1494 1497 1504 1509 1508 1510 1515 1514 1513 1514 1516 1518 1519 1520 1521 1522 1523 1524 1525 1525 1524 1524 1525 1525 1526 1526 1526 1526 1527 1528 1530 1532 1535 1537 1538 1539 1540 1542 1543 1545 1547 1549 1551 1552 1554 1556 1557 1559 1561 1563 1566 1567 1568 1570 1571 1572 1574 1576 1578 1579 1580 1582 1583 1585 1587 1588 1589
1507 1512 1512 1511 1512 1512 1509 1508 1507 1505 1505 1506 1508 1509 1507 1504 1501 1496 1494 1496 1496 1496 1499 1503 1509 1512 1511 1510 1512 1515 1517 1518 1520 1522 1523 1524 1525 1526 1526 1525 1526 1526 1526 1527 1528 1528 1527 1527 1528 1531 1533 1535 1537 1537 1538 1539 1541 1542 1544 1545 1547 1549 1550 1551 1553 1555 1556 1557 1560 1563 1564 1565 1567 1568 1570 1572 1574 1576 1578 1579 1581 1582 1583 1584 1585 1587
1509 1512 1512 1511 1512 1511 1508 1505 1504 1504 1505 1505 1508 1510 1508 1507 1504 1500 1501 1502 1499 1498 1499 1503 1508 1510 1508 1509 1511 1515 1517 1519 1521 1523 1525 1526 1526 1527 1527 1527 1527 1527 1528 1529 1529 1529 1529 1528 1529 1531 1533 1535 1537 1538 1538 1539 1540 1541 1542 1543 1545 1546 1548 1550 1551 1553 1554 1555 1557 1560 1560 1561 1563 1565 1567 1569 1571 1573 1575 1577 1579 1580 1581 1582 1583 1584
1507 1511 1513 1511 1511 1512 1509 1504 1502 1504 1506 1507 1510 1510 1508 1507 1504 1501 1503 1503 1503 1506 1506 1505 1509 1512 1510 1508 1511 1515 1518 1519 1522 1524 1525 1527 1527 1527 1527 1528 1528 1529 1530 1530 1531 1531 1531 1531 1531 1533 1534 1536 1538 1538 1539 1540 1540 1541 1542 1543 1543 1544 1547 1549 1549 1550 1552 1553 1555 1557 1557 1558 1561 1563 1564 1566 1568 1570 1572 1574 1576 1578 1579 1580 1581 1582
1508 1512 1512 1511 1513 1514 1513 1510 1507 1505 1506 1508 1512 1514 1512 1510 1508 1506 1506 1504 1504 1507 1509 1510 1512 1511 1508 1508 1512 1516 1518 1520 1522 1524 1525 1526 1527 1527 1528 1529 1530 1530 1531 1532 1533 1533 1533 1533 1534 1535 1536 1537 1538 1539 1540 1541 1541 1541 1542 1543 1543 1544 1546 1547 1547 1548 1549 1549 1551 1554 1555 1556 1558 1559 1561 1563 1565 1566 1568 1570 1572 1575 1576 1577 1578 1579
1513 1513 1513 1515 1517 1516 1516 1514 1509 1509 1515 1518 1518 1518 1516 1513 1510 1509 1510 1508 1505 1505 1509 1512 1510 1506 1506 1508 1512 1516 1519 1521 1523 1524 1525 1526 1526 1527 1528 1529 1531 1532 1533 1534 1534 1535 1536 1536 1536 1537 1538 1538 1539 1540 1541 1541 1541 1541 1542 1543 1543 1544 1544 1545 1546 1546 1546 1547 1549 1551 1552 1553 1554 1556 1558 1560 1561 1563 1565 1567 1569 1571 1573 1574 1576 1577
1515 1514 1516 1520 1519 1519 1520 1514 1510 1519 1527 1524 1516 1514 1515 1515 1513 1514 1516 1514 1509 1506 1506 1507 1506 1507 1509 1510 1512 1516 1519 1521 1523 1525 1526 1526 1526 1527 1529 1530 1531 1533 1534 1535 1536 1536 1537 1538 1538 1539 1540 1540 1541 1542 1542 1542 1542 1542 1542 1543 1543 1543 1544 1544 1545 1545 1545 1547 1548 1549 1550 1551 1552 1554 1555 1557 1558 1560 1563 1565 1567 1569 1570 1571 1573 1574
1514 1514 1519 1521 1521 1523 1522 1518 1523 1530 1524 1513 1509 1510 1511 1513 1513 1514 1515 1513 1511 1509 1506 1505 1506 1509 1511 1513 1515 1517 1519 1521 1524 1526 1527 1528 1528 1528 1529 1531 1533 1534 1535 1536 1536 1537 1538 1540 1540 1541 1542 1542 1543 1544 1544 1544 1544 1543 1543 1544 1544 1544 1544 1545 1545 1545 1546 1547 1548 1548 1549 1550 1551 1551 1553 1554 1556 1559 1562 1564 1565 1566 1567 1568 1569 1571
1514 1515 1518 1522 1523 1525 1524 1524 1529 1527 1515 1508 1509 1508 1507 1510 1511 1511 1512 1512 1513 1512 1509 1508 1508 1510 1512 1515 1517 1518 1520 1522 1524 1527 1529 1530 1530 1530 1531 1532 1534 1535 1535 1537 1537 1538 1539 1540 1542 1543 1543 1543 1544 1545 1545 1545 1546 1545 1545 1545 1546 1545 1545 1546 1546 1546 1546 1547 1548 1549 1549 1549 1550 1550 1551 1553 1555 1558 1560 1562 1562 1562 1563 1564 1565 1567
1514 1515 1517 1521 1524 1525 1526 1526 1525 1521 1517 1512 1509 1507 1508 1511 1511 1512 1514 1515 1514 1513 1512 1511 1511 1513 1515 1517 1519 1520 1520 1522 1526 1530 1531 1532 1532 1533 1534 1535 1536 1536 1536 1537 1538 1539 1540 1541 1543 1544 1544 1544 1545 1545 1546 1547 1547 1547 1546 1547 1547 1547 1547 1547 1547 1547 1548 1549 1549 1549 1549 1550 1550 1550 1551 1552 1554 1556 1558 1559 1559 1560 1561 1563 1564 1565
1514 1515 1516 1520 1524 1525 1525 1526 1527 1528 1525 1517 1512 1510 1508 1509 1511 1512 1515 1517 1515 1514 1513 1513 1515 1519 1520 1520 1521 1522 1521 1524 1530 1534 1533 1533 1534 1535 1536 1537 1538 1538 1538 1539 1540 1540 1542 1543 1544 1545 1545 1545 1546 1547 1548 1548 1549 1548 1548 1548 1548 1549 1549 1549 1550 1550 1551 1551 1551 1551 1551 1551 1551 1551 1551 1552 1553 1555 1557 1558 1559 1559 1560 1561 1563 1564
1515 1518 1517 1518 1522 1524 1524 1524 1528 1529 1524 1517 1513 1510 1508 1510 1510 1511 1517 1519 1515 1514 1514 1513 1515 1521 1523 1523 1524 1523 1523 1530 1536 1536 1535 1535 1536 1536 1538 1539 1540 1541 1541 1541 1542 1542 1543 1544 1545 1546 1547 1547 1547 1548 1549 1550 1550 1550 1550 1550 1550 1551 1551 1551 1552 1552 1552 1552 1552 1552 1552 1552 1552 1551 1551 1551 1552 1554 1557 1559 1559 1559 1559 1560 1562 1563
1517 1518 1519 1520 1523 1526 1526 1525 1526 1524 1518 1515 1513 1510 1510 1509 1508 1516 1526 1522 1511 1512 1515 1513 1513 1517 1520 1523 1525 1524 1525 1529 1533 1535 1536 1537 1537 1539 1540 1541 1542 1542 1543 1543 1544 1544 1544 1545 1546 1548 1549 1549 1549 1550 1551 1551 1551 1551 1551 1552 1552 1552 1552 1552 1553 1553 1553 1553 1553 1553 1553 1553 1553 1553 1553 1553 1554 1556 1558 1559 1559 1558 1558 1559 1561 1563
1523 1523 1525 1526 1526 1527 1526 1526 1526 1522 1516 1514 1512 1510 1510 1509 1512 1522 1526 1515 1507 1511 1514 1513 1514 1515 1516 1519 1521 1524 1526 1526 1528 1531 1535 1537 1539 1540 1541 1543 1543 1544 1544 1545 1545 1545 1546 1546 1547 1548 1550 1550 1551 1552 1552 1552 1552 1552 1552 1553 1553 1553 1553 1553 1553 1554 1554 1554 1554 1554 1554 1554 1554 1554 1555 1556 1557 1558 1558 1558 1557 1557 1557 1559 1561 1562
1527 1528 1529 1529 1530 1531 1529 1527 1527 1524 1518 1515 1513 1509 1509 1512 1517 1519 1513 1505 1506 1510 1511 1513 1515 1515 1517 1519 1519 1521 1524 1524 1526 1528 1531 1536 1539 1540 1541 1542 1543 1545 1546 1546 1546 1547 1547 1547 1548 1549 1550 1551 1552 1552 1552 1552 1553 1553 1553 1553 1553 1553 1553 1553 1554 1554 1554 1554 1554 1555 1555 1555 1555 1555 1556 1556 1557 1557 1556 1556 1556 1556 1557 1559 1560 1561
1527 1528 1529 1530 1531 1533 1532 1529 1530 1527 1520 1516 1513 1510 1510 1513 1514 1510 1506 1506 1508 1508 1510 1513 1515 1516 1517 1519 1520 1521 1522 1523 1527 1528 1529 1533 1538 1540 1541 1542 1543 1545 1546 1546 1547 1547 1547 1548 1549 1549 1550 1551 1551 1552 1552 1552 1552 1552 1552 1552 1553 1553 1553 1553 1553 1553 1553 1554 1554 1554 1554 1554 1555 1555 1556 1556 1557 1556 1556 1556 1556 1557 1558 1559 1560 1561
1526 1527 1529 1529 1529 1529 1530 1529 1528 1524 1520 1517 1516 1514 1513 1514 1512 1510 1509 1509 1509 1510 1512 1513 1515 1517 1518 1518 1519 1521 1522 1523 1527 1529 1529 1532 1535 1538 1541 1542 1544 1546 1547 1547 1547 1547 1547 1548 1549 1549 1550 1551 1551 1551 1551 1551 1551 1551 1551 1551 1551 1551 1552 1552 1552 1552 1552 1553 1553 1553 1554 1554 1554 1555 1555 1556 1556 1557 1557 1557 1557 1558 1558 1559 1559 1560
1525 1525 1525 1525 1525 1525 1526 1525 1523 1521 1520 1518 1517 1515 1515 1514 1513 1512 1512 1510 1511 1513 1514 1514 1516 1518 1519 1519 1520 1521 1521 1523 1526 1528 1530 1531 1533 1537 1540 1542 1544 1546 1548 1548 1548 1547 1548 1549 1549 1550 1551 1551 1551 1551 1551 1551 1551 1550 1550 1550 1550 1550 1550 1551 1551 1551 1551 1552 1552 1552 1553 1553 1554 1554 1554 1555 1555 1556 1557 1557 1557 1557 1558 1558 1559 1559
1524 1524 1523 1523 1523 1523 1523 1522 1521 1521 1520 1519 1518 1517 1516 1515 1514 1513 1513 1513 1513 1514 1515 1517 1518 1518 1520 1521 1521 1521 1522 1523 1525 1529 1531 1531 1532 1535 1539 1541 1544 1546 1547 1548 1548 1547 1547 1548 1549 1550 1551 1551 1552 1551 1551 1551 1550 1550 1550 1550 1550 1550 1550 1550 1550 1550 1550 1551 1551 1551 1552 1552 1552 1553 1553 1554 1554 1555 1555 1555 1556 1556 1556 1557 1557 1557
1524 1523 1523 1524 1524 1524 1523 1522 1521 1520 1519 1519 1519 1518 1517 1516 1515 1514 1514 1514 1514 1514 1515 1517 1519 1520 1522 1522 1523 1524 1525 1525 1526 1529 1531 1532 1533 1535 1537 1540 1543 1545 1546 1547 1546 1546 1547 1547 1548 1549 1550 1551 1551 1551 1551 1551 1551 1550 1550 1549 1549 1550 1550 1550 1550 1550 1550 1550 1550 1550 1550 1551 1551 1552 1552 1552 1553 1553 1553 1554 1554 1554 1554 1555 1555 1555
1524 1523 1523 1524 1524 1523 1523 1522 1521 1521 1520 1520 1519 1519 1518 1518 1517 1516 1515 1514 1514 1514 1515 1517 1518 1520 1521 1523 1525 1526 1528 1530 1532 1532 1532 1534 1535 1536 1538 1540 1542 1543 1545 1545 1546 1546 1546 1547 1548 1549 1550 1550 1550 1550 1550 1550 1550 1550 1550 1549 1549 1549 1549 1549 1549 1549 1549 1549 1549 1549 1549 1549 1550 1550 1550 1551 1551 1551 1552 1552 1552 1552 1552 1552 1553 1553
1523 1523 1523 1524 1524 1523 1522 1522 1522 1522 1521 1520 1520 1520 1519 1519 1518 1517 1517 1516 1515 1515 1516 1517 1518 1519 1520 1523 1525 1526 1528 1532 1536 1536 1537 1538 1537 1537 1539 1540 1542 1543 1544 1545 1546 1547 1546 1547 1548 1548 1549 1550 1550 1550 1550 1549 1549 1549 1548 1548 1548 1548 1548 1548 1548 1548 1548 1548 1548 1548 1548 1548 1548 1548 1549 1549 1549 1550 1550 1550 1551 1551 1551 1551 1551 1551
1522 1523 1524 1525 1525 1524 1522 1522 1522 1522 1522 1521 1521 1521 1520 1520 1520 1519 1518 1518 1518 1517 1517 1518 1519 1520 1521 1523 1524 1524 1526 1530 1534 1536 1538 1540 1541 1539 1539 1541 1542 1544 1544 1545 1546 1546 1546 1547 1547 1548 1549 1549 1549 1549 1549 1548 1548 1548 1547 1547 1547 1547 1547 1547 1547 1547 1547 1547 1547 1547 1546 1546 1547 1547 1547 1547 1547 1548 1548 1548 1548 1549 1549 1549 1550 1550
1521 1522 1523 1524 1525 1524 1522 1521 1521 1522 1521 1522 1522 1521 1522 1521 1521 1521 1520 1520 1520 1520 1520 1520 1520 1521 1522 1523 1524 1525 1526 1528 1531 1533 1535 1539 1540 1539 1539 1540 1542 1542 1543 1544 1544 1545 1546 1546 1547 1548 1548 1548 1548 1548 1547 1547 1547 1547 1546 1546 1546 1546 1546 1546 1546 1546 1545 1545 1546 1545 1545 1545 1545 1545 1545 1545 1545 1545 1546 1546 1546 1546 1546 1546 1547 1547